Overview Statistics Trail Chart Weather Telemetry Raw packets
 

This is the latest recevied weather packets stored in our database for station/object N0MR. If no packets are shown the sender has not sent any weather packets the latest 10 day(s).

<< 15 16 17 18 19 20 21 >>
Time Temp. Humidity Pressure Rain* Wind** Luminosity Snow
1788353227 13.33° C 96% 1012.4 hPa 0 mm - - -
1788352004 12.78° C 95% 1012.1 hPa 0 mm - - -
1788351402 12.78° C 95% 1012 hPa 0 mm - - -
1788350804 12.78° C 94% 1011.9 hPa 0 mm - - -
1788350204 12.78° C 94% 1011.9 hPa 0 mm - - -
1788349603 12.78° C 94% 1011.9 hPa 0 mm - - -
1788349004 12.78° C 94% 1011.9 hPa 0 mm - - -
1788348405 12.78° C 94% 1011.9 hPa 0 mm - - -
1788347804 12.78° C 94% 1011.9 hPa 0 mm - - -
1788347203 13.33° C 94% 1011.9 hPa 0 mm - - -
1788346603 13.33° C 94% 1011.9 hPa 0 mm - - -
1788346003 13.33° C 94% 1012 hPa 0 mm - - -
1788345403 13.33° C 94% 1012 hPa 0 mm - - -
1788344804 13.33° C 93% 1012.1 hPa 0 mm - - -
1788344204 13.33° C 93% 1012.1 hPa 0 mm - - -
1788343604 13.33° C 93% 1012.3 hPa 0 mm - - -
1788343003 13.33° C 93% 1012.3 hPa 0 mm - - -
1788342403 13.89° C 92% 1012 hPa 0 mm - - -
1788341804 13.89° C 92% 1012 hPa 0 mm - - -
1788341203 13.89° C 91% 1011.7 hPa 0 mm - - -
1788340604 13.89° C 91% 1011.7 hPa 0 mm - - -
1788340005 14.44° C 91% 1011.4 hPa 0 mm - - -
1788334605 15.56° C 88% 1011.5 hPa 0 mm - - -
1788334005 15.56° C 88% 1011.5 hPa 0 mm - - -
1788333406 15.56° C 88% 1011.6 hPa 0 mm - - -

* Rain latest hour (hover to see other rain measurements)
** Current wind speed in m/s (hover to see current wind gust speed)